TimePST,TemperatureF,Dew PointF,Humidity,Sea Level PressureIn,VisibilityMPH,Wind Direction,Wind SpeedMPH,Gust SpeedMPH,PrecipitationIn,Events,Conditions,WindDirDegrees,DateUTC
12:06 AM,28.4,26.6,93,29.63,2.0,ESE,3.5,-,0.00,Snow,Light Snow,110,2011-11-17 08:06:00
12:12 AM,28.4,26.6,93,29.60,3.0,East,5.8,-,0.00,Rain,Light Freezing Rain,80,2011-11-17 08:12:00
12:35 AM,28.4,26.6,93,29.63,8.0,NNE,3.5,-,0.00,Rain,Light Freezing Rain,20,2011-11-17 08:35:00
12:45 AM,28.4,26.6,93,29.64,8.0,Calm,Calm,-,0.00,,Overcast,0,2011-11-17 08:45:00
12:55 AM,28.9,27.0,92,29.69,7.0,SW,4.6,-,0.01,,Overcast,220,2011-11-17 08:55:00
1:02 AM,28.4,26.6,93,29.65,5.0,Calm,Calm,-,0.00,,Overcast,0,2011-11-17 09:02:00
1:09 AM,28.4,26.6,93,29.65,5.0,WNW,4.6,-,0.01,Rain,Light Freezing Rain,290,2011-11-17 09:09:00
1:40 AM,28.4,26.6,93,29.63,9.0,NNW,6.9,-,0.01,,Overcast,330,2011-11-17 09:40:00
2:10 AM,28.4,24.8,86,29.65,10.0,NNW,9.2,-,N/A,,Overcast,330,2011-11-17 10:10:00
2:30 AM,28.4,24.8,86,29.65,10.0,NW,8.1,-,N/A,,Scattered Clouds,310,2011-11-17 10:30:00
2:55 AM,26.1,23.0,88,29.69,10.0,West,5.8,-,N/A,,Clear,270,2011-11-17 10:55:00
3:55 AM,25.0,23.0,92,29.68,10.0,South,5.8,-,N/A,,Clear,180,2011-11-17 11:55:00
4:52 AM,39.2,28.4,65,29.63,10.0,West,20.7,32.2,0.00,,Partly Cloudy,280,2011-11-17 12:52:00
4:55 AM,39.9,28.0,63,29.66,10.0,West,15.0,32.2,0.00,,Partly Cloudy,280,2011-11-17 12:55:00
5:55 AM,37.0,27.0,67,29.70,10.0,NW,10.4,-,N/A,,Clear,310,2011-11-17 13:55:00
6:55 AM,36.0,26.1,67,29.73,10.0,North,-9999.0,-,N/A,,Clear,0,2011-11-17 14:55:00
7:55 AM,34.0,26.1,73,29.75,10.0,Calm,Calm,-,N/A,,Partly Cloudy,0,2011-11-17 15:55:00
8:55 AM,39.9,24.1,53,29.77,10.0,NW,5.8,-,N/A,,Clear,310,2011-11-17 16:55:00
9:55 AM,41.0,25.0,53,29.77,10.0,North,5.8,-,N/A,,Clear,350,2011-11-17 17:55:00
10:55 AM,41.0,26.1,55,29.78,10.0,NNW,4.6,-,N/A,,Clear,340,2011-11-17 18:55:00
12:55 PM,43.0,21.9,43,29.76,10.0,West,10.4,20.7,N/A,,Clear,280,2011-11-17 20:55:00
1:55 PM,42.1,23.0,47,29.75,10.0,West,10.4,-,N/A,,Partly Cloudy,280,2011-11-17 21:55:00
2:55 PM,41.0,25.0,53,29.75,10.0,WNW,5.8,-,N/A,,Clear,300,2011-11-17 22:55:00
3:55 PM,39.9,25.0,55,29.73,10.0,North,3.5,-,N/A,,Mostly Cloudy,360,2011-11-17 23:55:00
4:55 PM,37.9,26.1,62,29.70,10.0,Calm,Calm,-,N/A,,Overcast,0,2011-11-18 00:55:00
5:55 PM,37.0,27.0,67,29.68,10.0,Calm,Calm,-,N/A,,Overcast,0,2011-11-18 01:55:00
6:55 PM,37.0,28.0,70,29.67,10.0,NW,6.9,-,N/A,,Overcast,320,2011-11-18 02:55:00
7:55 PM,34.0,28.9,82,29.65,10.0,WSW,4.6,-,N/A,,Scattered Clouds,240,2011-11-18 03:55:00
8:55 PM,34.0,28.0,79,29.62,10.0,South,6.9,-,N/A,,Mostly Cloudy,180,2011-11-18 04:55:00
9:55 PM,33.1,28.9,85,29.60,10.0,SE,4.6,-,N/A,,Partly Cloudy,140,2011-11-18 05:55:00
10:55 PM,33.1,28.0,82,29.59,10.0,Calm,Calm,-,N/A,,Mostly Cloudy,0,2011-11-18 06:55:00